FW7308 Weather Reports


Display with metric or nautical units.
time (UTC)temp
F
wind
direction
speed
MPH
gust
MPH
rain 1hr
in
rain 24hr
in
rain mn
in
humidity
%
barometer
mb
20260903192739 72 283 3.0 3.0 0.00 0.00 0.04 94 1015.1
20260903192238 71 212 4.0 7.0 0.00 0.00 0.04 94 1015.4
20260903191739 71 33 4.0 5.0 0.00 0.00 0.04 94 1015.4
20260903191238 71 303 2.0 2.0 0.00 0.00 0.04 93 1015.4
20260903190737 71 303 2.0 2.0 0.00 0.00 0.04 93 1015.6
20260903190237 72 100 6.0 7.0 0.00 0.00 0.04 93 1015.4
20260903185736 71 283 3.0 3.0 0.00 0.00 0.04 94 1015.8
20260903185237 71 238 4.0 7.0 0.00 0.00 0.04 94 1015.8
20260903184839 71 89 4.0 6.0 0.00 0.00 0.04 95 1015.6
20260903184236 71 318 2.0 3.0 0.00 0.00 0.04 95 1015.8
20260903183902 71 292 2.0 2.0 0.00 0.00 0.04 95 1015.8
20260903183339 71 290 2.0 3.0 0.00 0.00 0.04 96 1015.8
20260903182735 70 289 3.0 5.0 0.00 0.00 0.04 97 1015.8
20260903182236 70 325 2.0 3.0 0.00 0.00 0.04 97 1016.1
20260903181734 70 285 3.0 3.0 0.00 0.00 0.04 97 1016.1
20260903180735 69 328 0.0 1.0 0.00 0.00 0.04 99 1015.8
20260903180234 69 297 2.0 3.0 0.00 0.00 0.04 99 1015.9
20260903175732 68 345 1.0 1.0 0.00 0.00 0.04 99 1016.1
20260903175235 68 339 1.0 1.0 0.00 0.00 0.04 99 1016.1
20260903174733 67 286 2.0 2.0 0.00 0.00 0.04 99 1016.1
20260903174232 67 273 2.0 3.0 0.00 0.00 0.04 99 1016.1
20260903173731 67 331 1.0 1.0 0.00 0.00 0.04 99 1016.1
20260903173234 66 334 1.0 2.0 0.00 0.00 0.04 99 1016.1
20260903172734 66 353 2.0 3.0 0.00 0.00 0.04 99 1016.1
20260903172231 66 294 2.0 3.0 0.00 0.00 0.04 99 1016.3
20260903171730 66 297 3.0 3.0 0.00 0.00 0.04 99 1016.1
20260903171232 66 17 2.0 2.0 0.00 0.00 0.04 99 1016.1
20260903170800 66 314 2.0 2.0 0.00 0.00 0.04 99 1016.1
20260903170229 66 0.0 0.0 0.00 0.00 0.04 99 1016.5
20260903165731 65 298 2.0 2.0 0.00 0.00 0.04 99 1016.5
20260903165230 65 334 2.0 2.0 0.00 0.00 0.04 99 1016.5
20260903164730 65 310 2.0 2.0 0.00 0.00 0.04 99 1016.5
20260903164229 65 313 1.0 1.0 0.00 0.00 0.04 99 1016.5
20260903163732 64 335 2.0 2.0 0.00 0.00 0.04 99 1016.5
20260903163228 64 314 1.0 2.0 0.00 0.00 0.04 99 1016.5
20260903162727 64 274 2.0 3.0 0.00 0.00 0.04 99 1016.5
20260903162226 64 0.0 0.0 0.00 0.00 0.04 99 1016.5
20260903161726 64 0.0 0.0 0.00 0.00 0.04 99 1016.5
20260903161225 64 315 2.0 2.0 0.00 0.00 0.04 99 1016.6
20260903160726 63 335 1.0 1.0 0.00 0.00 0.04 99 1016.5
20260903160225 63 0.0 0.0 0.00 0.00 0.04 99 1016.8
20260903155725 64 323 1.0 1.0 0.00 0.00 0.04 99 1016.8
20260903155224 63 326 0.0 1.0 0.00 0.00 0.04 99 1016.8
20260903154825 63 0.0 0.0 0.00 0.00 0.04 99 1016.8
20260903154224 63 340 1.0 1.0 0.00 0.00 0.04 99 1016.6
20260903153823 63 354 2.0 2.0 0.00 0.00 0.04 99 1016.5
20260903153222 62 321 0.0 1.0 0.00 0.00 0.04 99 1016.8
20260903152723 62 341 1.0 1.0 0.00 0.00 0.04 99 1016.8
20260903152222 62 312 2.0 2.0 0.00 0.00 0.04 99 1016.8
20260903151722 62 312 1.0 2.0 0.00 0.00 0.04 99 1016.8
20260903151221 62 329 0.0 1.0 0.00 0.00 0.04 99 1016.8
20260903150723 62 285 2.0 3.0 0.00 0.00 0.04 99 1017.0
20260903150224 62 332 2.0 2.0 0.00 0.00 0.04 99 1016.8
20260903145721 61 331 1.0 2.0 0.00 0.00 0.04 99 1016.8
20260903145220 62 339 1.0 1.0 0.00 0.00 0.04 99 1017.0
20260903144721 61 335 1.0 1.0 0.00 0.00 0.04 99 1016.8
20260903144222 61 316 1.0 1.0 0.00 0.00 0.04 99 1017.2
20260903143719 61 329 0.0 1.0 0.00 0.00 0.04 99 1017.2
20260903143220 61 329 1.0 1.0 0.00 0.00 0.04 99 1017.2
20260903142719 61 328 1.0 1.0 0.00 0.00 0.04 99 1017.2
20260903142219 61 0.0 0.0 0.00 0.00 0.04 99 1017.2
20260903141908 61 339 0.0 1.0 0.00 0.00 0.04 99 1017.2
20260903141219 60 334 0.0 1.0 0.00 0.00 0.04 99 1017.2
20260903140718 60 341 1.0 2.0 0.00 0.00 0.04 99 1017.0
20260903140218 60 336 1.0 1.0 0.00 0.00 0.04 99 1017.0
20260903135718 60 344 1.0 2.0 0.00 0.00 0.04 99 1017.2
20260903134717 60 5 2.0 3.0 0.00 0.00 0.04 99 1017.2
20260903134216 60 358 1.0 2.0 0.00 0.00 0.04 99 1017.2
20260903133745 60 346 1.0 2.0 0.00 0.00 0.04 99 1017.2
20260903133246 60 14 2.0 2.0 0.00 0.00 0.04 99 1017.2
20260903132745 60 326 1.0 1.0 0.00 0.00 0.04 99 1017.2
20260903132244 60 326 2.0 2.0 0.00 0.00 0.04 99 1017.2
20260903131745 60 347 0.0 1.0 0.00 0.00 0.04 99 1017.2
20260903131244 60 336 0.0 1.0 0.00 0.00 0.04 99 1017.2
20260903130743 60 352 2.0 2.0 0.00 0.00 0.04 99 1017.2
20260903130243 59 344 1.0 1.0 0.00 0.00 0.04 99 1017.2
20260903125742 59 12 2.0 3.0 0.00 0.00 0.04 99 1017.2
20260903125243 59 346 2.0 2.0 0.00 0.00 0.04 99 1017.2
20260903124844 59 330 1.0 2.0 0.00 0.00 0.04 99 1017.3
20260903124242 59 339 1.0 2.0 0.00 0.00 0.04 99 1017.3
20260903123741 59 7 3.0 3.0 0.00 0.00 0.04 99 1017.5
20260903123242 59 323 2.0 3.0 0.00 0.00 0.04 99 1017.5
20260903114739 59 323 2.0 2.0 0.00 0.00 0.04 99 1017.9
20260903114238 59 341 2.0 3.0 0.00 0.00 0.04 99 1017.9
20260903113238 59 136 4.0 6.0 0.00 0.00 0.04 99 1017.9
20260903112738 59 81 3.0 5.0 0.00 0.00 0.04 99 1017.9
20260903112337 59 299 2.0 2.0 0.00 0.00 0.04 99 1017.9
20260903111736 59 58 2.0 5.0 0.00 0.00 0.04 99 1017.9
20260903111235 59 164 3.0 6.0 0.00 0.00 0.04 99 1017.9
20260903110736 59 213 3.0 5.0 0.00 0.00 0.04 99 1017.9
20260903110235 59 254 3.0 3.0 0.00 0.00 0.04 99 1017.9
20260903105734 59 50 3.0 3.0 0.00 0.00 0.04 99 1017.9
20260903105236 58 268 1.0 2.0 0.00 0.00 0.04 99 1017.9
20260903104735 58 282 2.0 3.0 0.00 0.00 0.04 99 1017.9
20260903104234 58 29 3.0 3.0 0.00 0.00 0.04 99 1017.9
20260903103733 58 335 2.0 2.0 0.00 0.00 0.04 99 1017.7
20260903103232 58 9 2.0 3.0 0.00 0.00 0.04 99 1017.5
20260903102734 58 313 1.0 2.0 0.00 0.00 0.04 99 1017.5
20260903102233 58 118 3.0 5.0 0.00 0.00 0.04 99 1017.5
20260903101732 58 6 2.0 3.0 0.00 0.00 0.04 99 1017.5
20260903101231 58 164 3.0 6.0 0.00 0.00 0.04 99 1017.9
20260903100734 58 318 2.0 2.0 0.00 0.00 0.04 99 1017.5
20260903100232 58 105 3.0 5.0 0.00 0.00 0.04 99 1017.9
20260903095731 58 341 1.0 2.0 0.00 0.00 0.04 99 1017.9
20260903095230 58 326 2.0 3.0 0.00 0.00 0.03 99 1017.9
20260903094731 58 32 2.0 3.0 0.00 0.00 0.03 99 1017.9
20260903094235 58 112 4.0 5.0 0.00 0.00 0.03 99 1017.9
20260903093735 58 43 3.0 5.0 0.00 0.00 0.03 99 1017.9
20260903093229 58 46 3.0 3.0 0.00 0.00 0.03 99 1017.9
20260903092728 58 228 3.0 3.0 0.00 0.00 0.03 99 1017.5
20260903092229 58 90 4.0 6.0 0.00 0.00 0.03 99 1017.9
20260903091230 58 49 3.0 6.0 0.00 0.00 0.03 99 1017.5
20260903090727 58 167 5.0 7.0 0.00 0.00 0.03 99 1017.9
20260903085227 58 59 7.0 11.0 0.00 0.00 0.03 99 1017.9
20260903084728 58 4 3.0 3.0 0.00 0.00 0.03 99 1017.9
20260903084227 58 50 3.0 5.0 0.00 0.00 0.03 99 1018.2
20260903083726 58 173 5.0 6.0 0.00 0.00 0.03 99 1018.2
20260903083225 58 341 2.0 3.0 0.00 0.00 0.03 99 1018.4
20260903082724 58 74 4.0 5.0 0.00 0.00 0.03 99 1018.2
20260903081725 58 21 1.0 2.0 0.00 0.00 0.03 99 1018.4
20260903080225 58 8 1.0 2.0 0.00 0.00 0.03 99 1018.2
20260903075728 58 325 1.0 2.0 0.00 0.00 0.03 99 1018.2
20260903075223 58 354 2.0 3.0 0.00 0.00 0.03 99 1018.6
20260903074223 58 337 0.0 1.0 0.00 0.00 0.03 99 1018.4
20260903073722 58 8 2.0 3.0 0.00 0.00 0.03 99 1018.6
20260903073221 58 26 3.0 5.0 0.00 0.00 0.03 99 1018.6
20260903072720 58 7 2.0 2.0 0.00 0.00 0.03 99 1018.6
20260903072222 58 355 1.0 2.0 0.00 0.00 0.03 99 1018.6
20260903071721 58 11 3.0 3.0 0.00 0.00 0.03 99 1018.6
20260903071221 58 76 3.0 5.0 0.00 0.00 0.03 99 1018.6
20260903070719 58 163 3.0 6.0 0.00 0.00 0.03 99 1018.6
20260903070218 58 11 2.0 3.0 0.00 0.00 0.03 99 1018.6
20260903065720 58 325 0.0 1.0 0.00 0.00 0.03 99 1018.7
20260903065219 58 340 1.0 2.0 0.00 0.00 0.03 99 1018.6
20260903064718 58 351 2.0 3.0 0.00 0.00 0.03 99 1018.6
20260903063718 58 79 4.0 6.0 0.00 0.00 0.03 99 1018.6
20260903063217 58 4 2.0 3.0 0.00 0.00 0.03 99 1018.6
20260903062717 58 9 2.0 3.0 0.00 0.00 0.03 99 1018.6
20260903062216 58 123 4.0 6.0 0.00 0.00 0.03 99 1018.6
20260903061858 59 66 5.0 9.0 0.00 0.00 0.03 99 1018.6
20260903050742 61 25 3.0 5.0 0.00 0.00 0.00 91 1020.0
20260903050241 61 346 3.0 5.0 0.00 0.00 0.00 91 1020.1
20260903045742 61 40 4.0 5.0 0.00 0.00 0.00 90 1020.0
20260903045241 61 172 6.0 8.0 0.00 0.00 0.00 89 1020.0
20260903044740 62 95 5.0 6.0 0.00 0.00 0.00 89 1020.0
20260903044240 62 114 8.0 9.0 0.00 0.00 0.00 89 1019.8
20260903043739 62 57 4.0 5.0 0.00 0.00 0.00 89 1020.0
20260903043240 62 64 3.0 5.0 0.00 0.00 0.00 89 1020.0
20260903042739 62 52 2.0 3.0 0.00 0.00 0.00 90 1020.0
20260903042238 62 138 7.0 10.0 0.00 0.00 0.00 89 1020.0
20260903041738 62 171 6.0 7.0 0.00 0.00 0.00 90 1020.0
20260903041341 62 158 5.0 8.0 0.00 0.00 0.00 90 1020.3
20260903040738 62 192 3.0 5.0 0.00 0.00 0.00 90 1020.3
20260903040239 62 86 4.0 5.0 0.00 0.00 0.00 91 1020.3
20260903035737 62 21 3.0 3.0 0.00 0.00 0.00 92 1020.7
20260903035238 62 149 3.0 5.0 0.00 0.00 0.00 92 1020.7
20260903034738 62 249 4.0 5.0 0.00 0.00 0.00 92 1020.3
20260903034236 62 249 3.0 5.0 0.00 0.00 0.00 93 1020.3
20260903033735 62 115 4.0 5.0 0.00 0.00 0.00 93 1020.3
20260903033236 62 119 3.0 5.0 0.00 0.00 0.00 93 1020.3
20260903032736 62 54 3.0 5.0 0.00 0.00 0.00 93 1020.7
20260903032237 62 354 2.0 3.0 0.00 0.00 0.00 94 1020.3
20260903031737 62 353 2.0 2.0 0.00 0.00 0.00 94 1020.7
20260903031336 62 178 4.0 7.0 0.00 0.00 0.00 94 1021.0
20260903030735 62 338 3.0 5.0 0.00 0.00 0.00 94 1020.8
20260903030234 62 96 4.0 5.0 0.00 0.00 0.00 95 1021.0
20260903025734 62 176 3.0 5.0 0.00 0.00 0.00 95 1021.0
20260903025234 62 44 4.0 6.0 0.00 0.00 0.00 96 1021.0
20260903024733 62 343 2.0 3.0 0.00 0.00 0.00 96 1020.8
20260903024232 62 323 2.0 3.0 0.00 0.00 0.00 96 1021.0
20260903023733 62 357 1.0 2.0 0.00 0.00 0.00 97 1021.0
20260903023232 62 20 3.0 3.0 0.00 0.00 0.00 98 1021.0
20260903022732 62 8 3.0 5.0 0.00 0.00 0.00 98 1021.0
20260903022231 62 338 2.0 2.0 0.00 0.00 0.00 98 1021.4
20260903021730 62 12 3.0 3.0 0.00 0.00 0.00 98 1021.0
20260903021231 62 184 2.0 5.0 0.00 0.00 0.00 98 1021.0
20260903020730 62 96 3.0 5.0 0.00 0.00 0.00 98 1021.4
20260903020231 62 19 3.0 5.0 0.00 0.00 0.00 97 1021.4
20260903015830 62 335 0.0 1.0 0.00 0.00 0.00 97 1021.4
20260903015230 62 350 1.0 2.0 0.00 0.00 0.00 97 1021.5
20260903014729 62 43 3.0 5.0 0.00 0.00 0.00 97 1021.4
20260903014228 62 358 1.0 2.0 0.00 0.00 0.00 96 1021.7
20260903013729 62 319 2.0 2.0 0.00 0.00 0.00 96 1021.7
20260903013228 62 9 2.0 3.0 0.00 0.00 0.00 96 1021.7
20260903012727 62 91 5.0 6.0 0.00 0.00 0.00 95 1021.7
20260903012227 62 31 2.0 3.0 0.00 0.00 0.00 95 1021.7
20260903011726 62 39 3.0 3.0 0.00 0.00 0.00 95 1022.1
20260903011227 62 114 8.0 9.0 0.00 0.00 0.00 95 1021.7
20260903010726 62 0.0 0.0 0.00 0.00 0.00 95 1022.1
20260903010225 62 270 4.0 5.0 0.00 0.00 0.00 94 1022.1
20260903005725 62 134 3.0 5.0 0.00 0.00 0.00 94 1021.7
20260903005224 62 170 6.0 7.0 0.00 0.00 0.00 94 1021.4
20260903004725 63 196 3.0 5.0 0.00 0.00 0.00 94 1021.4
20260903004227 63 217 4.0 6.0 0.00 0.00 0.00 93 1021.4
20260903003827 63 187 4.0 8.0 0.00 0.00 0.00 93 1021.4
20260903003223 63 220 3.0 5.0 0.00 0.00 0.00 93 1021.4
20260903002824 63 28 3.0 5.0 0.00 0.00 0.00 93 1021.4
20260903002223 63 82 4.0 7.0 0.00 0.00 0.00 93 1021.0
20260903001724 63 169 3.0 3.0 0.00 0.00 0.00 93 1021.0
20260903001221 63 17 2.0 3.0 0.00 0.00 0.00 93 1020.8
20260903000723 63 163 4.0 6.0 0.00 0.00 0.00 93 1021.0
20260902235721 63 126 7.0 10.0 0.00 0.00 0.00 93 1021.0
20260902235221 64 153 7.0 8.0 0.00 0.00 0.00 94 1021.0
20260902234721 64 153 7.0 8.0 0.00 0.00 0.00 94 1021.4
20260902233821 64 102 5.0 7.0 0.00 0.00 0.00 99 1021.4
20260902233222 64 102 5.0 7.0 0.00 0.00 0.00 99 1021.4
20260902232720 64 3 3.0 5.0 0.00 0.00 0.00 99 1021.4
20260902232321 64 316 2.0 2.0 0.00 0.00 0.00 99 1021.7
20260902231718 64 359 2.0 2.0 0.00 0.00 0.00 99 1021.7
20260902231319 64 9 2.0 2.0 0.00 0.00 0.00 99 1022.1
20260902230717 64 322 1.0 2.0 0.00 0.00 0.00 99 1022.2
20260902230218 64 337 1.0 1.0 0.00 0.00 0.00 99 1022.4
20260902225820 64 25 2.0 3.0 0.00 0.00 0.00 99 1022.4
20260902225216 64 0.0 0.0 0.00 0.00 0.00 99 1022.8
20260902224717 64 340 1.0 2.0 0.00 0.00 0.00 99 1022.8
20260902224320 64 336 1.0 2.0 0.00 0.00 0.00 99 1022.8
20260902223746 64 342 1.0 1.0 0.00 0.00 0.00 99 1022.8
20260902223246 64 346 1.0 2.0 0.00 0.00 0.00 99 1022.8
20260902222744 65 342 1.0 1.0 0.00 0.00 0.00 99 1023.1
20260902222245 65 347 1.0 1.0 0.00 0.00 0.00 98 1022.8
20260902221244 65 0.0 0.0 0.00 0.00 0.00 97 1023.1
20260902220743 65 332 0.0 1.0 0.00 0.00 0.00 97 1023.1
20260902220244 65 332 1.0 1.0 0.00 0.00 0.00 96 1023.1
20260902215243 65 320 1.0 2.0 0.00 0.00 0.00 96 1023.1
20260902214742 65 319 0.0 1.0 0.00 0.00 0.00 97 1023.1
20260902214241 65 0.0 0.0 0.00 0.00 0.00 97 1022.8
20260902213743 65 338 0.0 1.0 0.00 0.00 0.00 97 1023.1
20260902213241 65 323 1.0 1.0 0.00 0.00 0.00 97 1022.8
20260902212741 65 323 1.0 2.0 0.00 0.00 0.00 97 1022.8
20260902212242 65 334 0.0 1.0 0.00 0.00 0.00 97 1022.8
20260902211741 65 336 0.0 1.0 0.00 0.00 0.00 97 1022.8
20260902211242 65 342 1.0 1.0 0.00 0.00 0.00 96 1022.8
20260902210743 65 335 0.0 1.0 0.00 0.00 0.00 96 1022.8
20260902210241 65 0.0 0.0 0.00 0.00 0.00 97 1023.1
20260902205740 65 335 1.0 1.0 0.00 0.00 0.00 96 1023.1
20260902205239 65 325 1.0 2.0 0.00 0.00 0.00 96 1023.1
20260902204738 65 294 0.0 1.0 0.00 0.00 0.00 95 1022.9
20260902204239 65 329 0.0 1.0 0.00 0.00 0.00 97 1022.9
20260902203739 65 350 1.0 2.0 0.00 0.00 0.00 97 1022.8
20260902203238 65 332 0.0 1.0 0.00 0.00 0.00 96 1022.8
20260902202839 66 358 2.0 2.0 0.00 0.00 0.00 95 1022.8
20260902202238 66 320 1.0 2.0 0.00 0.00 0.00 95 1022.8
20260902201738 66 0.0 0.0 0.00 0.00 0.00 96 1022.8
20260902201237 66 348 2.0 2.0 0.00 0.00 0.00 95 1023.1
20260902200736 66 334 1.0 2.0 0.00 0.00 0.00 95 1023.1
20260902200237 66 355 2.0 3.0 0.00 0.00 0.00 94 1023.1
20260902195736 66 170 4.0 6.0 0.00 0.00 0.00 94 1023.1
20260902195235 66 156 4.0 5.0 0.00 0.00 0.00 94 1023.1
20260902194235 66 25 3.0 3.0 0.00 0.00 0.00 93 1023.5
20260902193735 66 138 5.0 6.0 0.00 0.00 0.00 92 1023.5
20260902193336 66 133 5.0 8.0 0.00 0.00 0.00 92 1023.5